Weather History for KMYP - September, 2013

Change the Weather History Date:

Thursday, September 26, 2013

  Actual Average (KGUC) Record (KGUC)
Temperature  
Mean Temperature 43 °F -  
Max Temperature 53 °F 64 °F 77 °F (2010)
Min Temperature 33 °F 30 °F 19 °F (2000)
Degree Days  
Heating Degree Days 22    
Moisture  
Dew Point 17 °F    
Average Humidity 39    
Maximum Humidity 56    
Minimum Humidity 19    
Precipitation  
Precipitation 0.00 in - - ()
Sea Level Pressure  
Sea Level Pressure 30.22 in    
Wind  
Wind Speed 36 mph (SW)    
Max Wind Speed 46 mph    
Max Gust Speed 55 mph    
Visibility 10 miles    
Events      
Averages and records for this station are not official NWS values.
T = Trace of Precipitation, MM = Missing Value Source: NWS Daily Summary

Daily Weather History Graph

Daily Weather History Graph

Search for Another Location

Airport or City:

Trip Planner

Search our weather history database for the weather conditions in past years. The results will help you decide how hot, cold, wet, or windy it might be!

Date:

Astronomy

Sep. 26, 2013 Rise Set
Actual Time 6:56 AM MDT 6:55 PM MDT
Civil Twilight 6:30 AM MDT 7:21 PM MDT
Nautical Twilight 5:59 AM MDT 7:52 PM MDT
Astronomical Twilight 5:28 AM MDT 8:23 PM MDT
Moon 11:59 PM MDT (9/26) 1:47 PM MDT (9/26)
Length of Visible Light 12h 51m
Length of Day
11h 58m
Waning Gibbous, 54% of the Moon is Illuminated
Sep 26
Waning Gibbous
Sep 26
Last Quarter
Oct 4
New
Oct 11
First Quarter
Oct 18
Full

Hourly Weather History & Observations

Time (MDT) Temp. Windchill Dew Point Humidity Pressure Visibility Wind Dir Wind Speed Gust Speed Precip Events Conditions
12:09 AM 41.0 °F 28.0 °F 23.0 °F 49% 30.19 in 10.0 mi SW 42.6 mph 51.8 mph N/A   Clear
12:29 AM 41.0 °F 27.6 °F 21.2 °F 45% 30.18 in 10.0 mi SW 46.0 mph 52.9 mph N/A   Clear
12:49 AM 39.2 °F 25.2 °F 21.2 °F 49% 30.18 in 10.0 mi SW 44.9 mph 55.2 mph N/A   Clear
1:09 AM 39.2 °F 25.4 °F 21.2 °F 49% 30.18 in 10.0 mi SW 43.7 mph 55.2 mph N/A   Clear
1:29 AM 39.2 °F 25.7 °F 21.2 °F 49% 30.19 in 10.0 mi SW 41.4 mph 54.1 mph N/A   Clear
1:49 AM 37.4 °F 22.7 °F 21.2 °F 52% 30.18 in 10.0 mi SW 44.9 mph 55.2 mph N/A   Clear
2:09 AM 37.4 °F 23.3 °F 21.2 °F 52% 30.19 in 10.0 mi SW 40.3 mph 49.5 mph N/A   Clear
2:29 AM 37.4 °F 22.8 °F 19.4 °F 48% 30.18 in 10.0 mi SW 43.7 mph 55.2 mph N/A   Clear
2:49 AM 37.4 °F 23.3 °F 19.4 °F 48% 30.19 in 10.0 mi SW 40.3 mph 51.8 mph N/A   Clear
3:09 AM 37.4 °F 23.3 °F 19.4 °F 48% 30.20 in 10.0 mi SW 40.3 mph 48.3 mph N/A   Clear
3:29 AM 35.6 °F 21.3 °F 19.4 °F 52% 30.20 in 10.0 mi SW 36.8 mph 48.3 mph N/A   Clear
3:49 AM 35.6 °F 21.3 °F 19.4 °F 52% 30.20 in 10.0 mi SW 36.8 mph 43.7 mph N/A   Clear
4:09 AM 35.6 °F 21.7 °F 19.4 °F 52% 30.20 in 10.0 mi SW 34.5 mph 44.9 mph N/A   Clear
4:29 AM 35.6 °F 20.6 °F 17.6 °F 48% 30.19 in 10.0 mi SW 41.4 mph 48.3 mph N/A   Clear
4:49 AM 35.6 °F 20.8 °F 17.6 °F 48% 30.20 in 10.0 mi SW 40.3 mph 49.5 mph N/A   Clear
5:09 AM 35.6 °F 22.3 °F 17.6 °F 48% 30.21 in 10.0 mi SW 31.1 mph 40.3 mph N/A   Clear
5:29 AM 33.8 °F 19.2 °F 17.6 °F 52% 30.20 in 10.0 mi SW 34.5 mph 42.6 mph N/A   Clear
5:49 AM 35.6 °F 21.9 °F 14.0 °F 41% 30.21 in 10.0 mi SW 33.4 mph 42.6 mph N/A   Clear
6:09 AM 35.6 °F 21.3 °F 14.0 °F 41% 30.21 in 10.0 mi SW 36.8 mph 41.4 mph N/A   Clear
6:29 AM 35.6 °F 21.9 °F 14.0 °F 41% 30.21 in 10.0 mi SW 33.4 mph - N/A   Clear
6:49 AM 33.8 °F 19.6 °F 14.0 °F 44% 30.22 in 10.0 mi SW 32.2 mph 39.1 mph N/A   Clear
7:09 AM 33.8 °F 21.0 °F 14.0 °F 44% 30.22 in 10.0 mi SW 25.3 mph 31.1 mph N/A   Clear
7:29 AM 33.8 °F 20.8 °F 17.6 °F 52% 30.23 in 10.0 mi SW 26.5 mph 32.2 mph N/A   Clear
7:49 AM 33.8 °F 20.5 °F 15.8 °F 48% 30.23 in 10.0 mi SW 27.6 mph 34.5 mph N/A   Clear
8:09 AM 35.6 °F 22.3 °F 15.8 °F 44% 30.23 in 10.0 mi SW 31.1 mph 40.3 mph N/A   Clear
8:29 AM 35.6 °F 22.7 °F 15.8 °F 44% 30.23 in 10.0 mi SSW 28.8 mph - N/A   Clear
8:49 AM 37.4 °F 25.2 °F 17.6 °F 45% 30.24 in 10.0 mi SSW 28.8 mph 35.7 mph N/A   Clear
9:09 AM 39.2 °F 28.0 °F 15.8 °F 39% 30.25 in 10.0 mi SSW 26.5 mph 32.2 mph N/A   Clear
9:29 AM 41.0 °F 29.8 °F 15.8 °F 36% 30.24 in 10.0 mi SSW 29.9 mph 33.4 mph N/A   Clear
9:49 AM 41.0 °F 29.8 °F 15.8 °F 36% 30.25 in 10.0 mi SSW 29.9 mph 36.8 mph N/A   Clear
10:09 AM 41.0 °F 29.5 °F 15.8 °F 36% 30.24 in 10.0 mi SSW 32.2 mph 40.3 mph N/A   Clear
10:17 AM 42.8 °F 31.8 °F 15.8 °F 34% 30.25 in 10.0 mi SW 33.4 mph 38.0 mph N/A   Clear
10:49 AM 42.8 °F 31.6 °F 17.6 °F 36% 30.24 in 10.0 mi SSW 34.5 mph 39.1 mph N/A   Clear
11:09 AM 42.8 °F 31.1 °F 15.8 °F 34% 30.24 in 10.0 mi SSW 38.0 mph 44.9 mph N/A   Clear
11:23 AM 44.6 °F 34.1 °F 17.6 °F 34% 30.25 in 10.0 mi SSW 34.5 mph 42.6 mph N/A   Clear
11:49 AM 44.6 °F 35.5 °F 19.4 °F 37% 30.25 in 10.0 mi SSW 25.3 mph 35.7 mph N/A   Clear
12:09 PM 44.6 °F 34.9 °F 17.6 °F 34% 30.24 in 10.0 mi SSW 28.8 mph 42.6 mph N/A   Clear
12:29 PM 46.4 °F 37.2 °F 19.4 °F 34% 30.24 in 10.0 mi SSW 29.9 mph 42.6 mph N/A   Clear
12:49 PM 46.4 °F 36.7 °F 19.4 °F 34% 30.23 in 10.0 mi SSW 33.4 mph 39.1 mph N/A   Clear
1:09 PM 48.2 °F - 17.6 °F 30% 30.24 in 10.0 mi SSW 28.8 mph 42.6 mph N/A   Clear
1:28 PM 51.8 °F - 17.6 °F 26% 30.23 in 10.0 mi SW 34.5 mph 48.3 mph N/A   Clear
1:49 PM 51.8 °F - 14.0 °F 22% 30.23 in 10.0 mi SW 33.4 mph 41.4 mph N/A   Clear
2:09 PM 51.8 °F - 12.2 °F 21% 30.22 in 10.0 mi SSW 35.7 mph 48.3 mph N/A   Clear
2:23 PM 51.8 °F - 14.0 °F 22% 30.22 in 10.0 mi SSW 35.7 mph 42.6 mph N/A   Clear
3:28 PM 51.8 °F - 10.4 °F 19% 30.22 in 10.0 mi SSW 32.2 mph 48.3 mph N/A   Clear
3:49 PM 53.6 °F - 14.0 °F 21% 30.23 in 10.0 mi SSW 27.6 mph 40.3 mph N/A   Clear
4:09 PM 51.8 °F - 17.6 °F 26% 30.22 in 10.0 mi South 27.6 mph 35.7 mph N/A   Clear
4:29 PM 50.0 °F - 15.8 °F 26% 30.23 in 10.0 mi South 25.3 mph 36.8 mph N/A   Clear
4:49 PM 50.0 °F - 15.8 °F 26% 30.23 in 10.0 mi South 19.6 mph 34.5 mph N/A   Clear
5:08 PM 50.0 °F - 15.8 °F 26% 30.23 in 10.0 mi SSW 24.2 mph 34.5 mph N/A   Clear
5:29 PM 50.0 °F - 14.0 °F 24% 30.24 in 10.0 mi South 24.2 mph 31.1 mph N/A   Clear
5:49 PM 48.2 °F - 14.0 °F 25% 30.24 in 10.0 mi SSW 27.6 mph 33.4 mph N/A   Clear
6:09 PM 46.4 °F 37.4 °F 12.2 °F 25% 30.24 in 10.0 mi SSW 28.8 mph 40.3 mph N/A   Clear
6:27 PM 44.6 °F 34.4 °F 12.2 °F 27% 30.23 in 10.0 mi SSW 32.2 mph 36.8 mph N/A   Clear
6:49 PM 44.6 °F 34.9 °F 12.2 °F 27% 30.24 in 10.0 mi SSW 28.8 mph 38.0 mph N/A   Clear
7:09 PM 42.8 °F 32.9 °F 14.0 °F 31% 30.24 in 10.0 mi SW 26.5 mph 33.4 mph N/A   Clear
7:29 PM 41.0 °F 30.2 °F 14.0 °F 33% 30.24 in 10.0 mi SW 27.6 mph - N/A   Clear
7:49 PM 41.0 °F 29.1 °F 14.0 °F 33% 30.24 in 10.0 mi SW 34.5 mph 41.4 mph N/A   Clear
8:09 PM 41.0 °F 28.8 °F 14.0 °F 33% 30.24 in 10.0 mi SW 36.8 mph 44.9 mph N/A   Clear
8:29 PM 41.0 °F 29.3 °F 14.0 °F 33% 30.24 in 10.0 mi SW 33.4 mph 41.4 mph N/A   Clear
8:49 PM 41.0 °F 29.1 °F 14.0 °F 33% 30.23 in 10.0 mi SW 34.5 mph 38.0 mph N/A   Clear
9:09 PM 41.0 °F 30.0 °F 14.0 °F 33% 30.23 in 10.0 mi SW 28.8 mph 39.1 mph N/A   Clear
9:29 PM 41.0 °F 29.1 °F 14.0 °F 33% 30.23 in 10.0 mi SW 34.5 mph 40.3 mph N/A   Clear
9:49 PM 41.0 °F 28.8 °F 15.8 °F 36% 30.23 in 10.0 mi SW 36.8 mph 43.7 mph N/A   Clear
10:09 PM 39.2 °F 26.5 °F 17.6 °F 42% 30.22 in 10.0 mi SW 35.7 mph 42.6 mph N/A   Clear
10:29 PM 39.2 °F 25.5 °F 21.2 °F 49% 30.22 in 10.0 mi SW 42.6 mph 54.1 mph N/A   Clear
10:49 PM 39.2 °F 25.8 °F 23.0 °F 52% 30.21 in 10.0 mi SW 40.3 mph 47.2 mph N/A   Clear
11:09 PM 39.2 °F 26.5 °F 23.0 °F 52% 30.21 in 10.0 mi SW 35.7 mph 48.3 mph N/A   Clear
11:29 PM 37.4 °F 23.5 °F 23.0 °F 56% 30.21 in 10.0 mi SW 39.1 mph 47.2 mph N/A   Clear
11:49 PM 37.4 °F 23.6 °F 23.0 °F 56% 30.22 in 10.0 mi SW 38.0 mph 46.0 mph N/A   Clear